Zurück zum Katalog

STARLINK-35025

AktivKommunikationVLEO
NORAD 65430·PAYLOAD·🇺🇸 United States

Gestartet Aug 31, 2025 von Cape Canaveral Space Force Station

Loading…

Nächste Überflüge (nächste 24 Stunden)

TLE

AktuellSource: CelesTrak SupGP

Epoche: Sep 14, 2026, 21:09 UTC

1 65430C 25192AC  26257.88173611  .00007159  00000+0  21160-3 0  2575
2 65430  53.1573  70.1123 0001207  87.1988 110.6617 15.34375175    13

Verfolge STARLINK-35025 in Echtzeit mit AllMySat

Download on the App Store